When you browse on this site, cookies collect data to enhance your experience and personalize the content and advertising you see.
Visit our Privacy Policy to learn more. By continuing to use the site, you agree to this use of cookies and data.
  • Em Portugal
  • Lista de países
  • Para 7 dias
  • Temperatura da água
  • Mapas de satélite
  • Mapa do tempo
  • Widgets de tempo
  • user-avatar
    Iniciar Sessão

    Previsão horária em Smolan

    Hoje, 19 Março, Terça-feira

    Tempo Temperatura Precipitação Vento Pressão Humidade
    00:00 +6°C° 0 mm 1 m/s 652 mmHg 84%
    01:00 +6°C° 0 mm 1 m/s 652 mmHg 82%
    02:00 +5°C° 0 mm 1 m/s 652 mmHg 79%
    03:00 +5°C° 0 mm 1 m/s 652 mmHg 77%
    04:00 +5°C° 0 mm 1 m/s 652 mmHg 75%
    05:00 +5°C° 0 mm 1 m/s 652 mmHg 73%
    06:00 +6°C° 0 mm 1 m/s 653 mmHg 69%
    07:00 +7°C° 0 mm 1 m/s 654 mmHg 66%
    08:00 +8°C° 0 mm 1 m/s 654 mmHg 62%
    09:00 +10°C° 0 mm 1 m/s 655 mmHg 58%
    10:00 +12°C° 0 mm 1 m/s 656 mmHg 54%
    11:00 +14°C° 0 mm 1 m/s 656 mmHg 49%
    12:00 +14°C° 0 mm 1 m/s 656 mmHg 51%
    13:00 +14°C° 0 mm 1 m/s 656 mmHg 53%
    14:00 +14°C° 0 mm 2 m/s 656 mmHg 55%
    15:00 +13°C° 0.7 mm 1 m/s 656 mmHg 61%
    16:00 +12°C° 0.7 mm 1 m/s 655 mmHg 68%
    17:00 +11°C° 0.7 mm 1 m/s 655 mmHg 74%
    18:00 +9°C° 1.5 mm 0 m/s 655 mmHg 80%
    19:00 +8°C° 1.5 mm 0 m/s 655 mmHg 87%
    20:00 +7°C° 1.5 mm 0 m/s 655 mmHg 93%
    21:00 +6°C° 1.7 mm 0 m/s 655 mmHg 93%
    22:00 +7°C° 1.7 mm 1 m/s 656 mmHg 94%
    23:00 +7°C° 1.7 mm 1 m/s 656 mmHg 94%

    Amanhã, 20 Março, Quarta-feira

    Tempo Temperatura Precipitação Vento Pressão Humidade
    00:00 +7°C° 1.4 mm 1 m/s 656 mmHg 94%
    01:00 +7°C° 1.4 mm 1 m/s 657 mmHg 94%
    02:00 +7°C° 1.4 mm 1 m/s 657 mmHg 95%
    03:00 +7°C° 0.8 mm 1 m/s 657 mmHg 95%
    04:00 +6°C° 0.8 mm 2 m/s 657 mmHg 95%
    05:00 +6°C° 0.8 mm 2 m/s 657 mmHg 95%
    06:00 +6°C° 0.2 mm 2 m/s 657 mmHg 93%
    07:00 +6°C° 0.2 mm 2 m/s 658 mmHg 92%
    08:00 +6°C° 0.2 mm 2 m/s 658 mmHg 90%
    09:00 +7°C° 0.2 mm 2 m/s 659 mmHg 86%
    10:00 +8°C° 0.2 mm 2 m/s 659 mmHg 81%
    11:00 +9°C° 0.2 mm 2 m/s 660 mmHg 77%
    12:00 +9°C° 0.4 mm 2 m/s 660 mmHg 75%
    13:00 +9°C° 0.4 mm 2 m/s 660 mmHg 74%
    14:00 +9°C° 0.4 mm 2 m/s 660 mmHg 72%
    15:00 +9°C° 0.4 mm 2 m/s 660 mmHg 76%
    16:00 +8°C° 0.4 mm 2 m/s 660 mmHg 79%
    17:00 +8°C° 0.4 mm 2 m/s 659 mmHg 83%
    18:00 +7°C° 0.1 mm 2 m/s 660 mmHg 85%
    19:00 +6°C° 0.1 mm 2 m/s 660 mmHg 87%
    20:00 +6°C° 0.1 mm 2 m/s 660 mmHg 90%
    21:00 +5°C° 0 mm 2 m/s 661 mmHg 90%
    22:00 +4°C° 0 mm 2 m/s 661 mmHg 91%
    23:00 +4°C° 0 mm 2 m/s 661 mmHg 91%

    Depois de amanhã, 21 Março, Quinta-feira

    Tempo Temperatura Precipitação Vento Pressão Humidade
    00:00 +3°C° 0 mm 2 m/s 661 mmHg 91%
    01:00 +3°C° 0 mm 2 m/s 661 mmHg 91%
    02:00 +3°C° 0 mm 2 m/s 661 mmHg 91%
    03:00 +2°C° 0 mm 2 m/s 661 mmHg 92%
    04:00 +2°C° 0 mm 2 m/s 661 mmHg 92%
    05:00 +2°C° 0 mm 2 m/s 661 mmHg 92%
    06:00 +3°C° 0 mm 2 m/s 661 mmHg 90%
    07:00 +3°C° 0 mm 2 m/s 661 mmHg 88%
    08:00 +4°C° 0 mm 2 m/s 662 mmHg 86%
    09:00 +4°C° 0 mm 3 m/s 662 mmHg 82%
    10:00 +4°C° 0 mm 3 m/s 662 mmHg 78%
    11:00 +5°C° 0 mm 3 m/s 663 mmHg 74%
    12:00 +7°C° 0 mm 3 m/s 663 mmHg 72%
    13:00 +7°C° 0 mm 3 m/s 662 mmHg 70%
    14:00 +7°C° 0 mm 3 m/s 662 mmHg 68%
    15:00 +7°C° 0 mm 3 m/s 662 mmHg 67%
    16:00 +7°C° 0 mm 2 m/s 662 mmHg 67%
    17:00 +7°C° 0 mm 2 m/s 662 mmHg 67%
    18:00 +6°C° 0 mm 2 m/s 661 mmHg 74%
    19:00 +4°C° 0 mm 2 m/s 661 mmHg 81%
    20:00 +4°C° 0 mm 1 m/s 661 mmHg 88%
    21:00 +4°C° 0 mm 1 m/s 661 mmHg 88%
    22:00 +4°C° 0 mm 1 m/s 662 mmHg 88%
    23:00 +4°C° 0 mm 1 m/s 662 mmHg 88%

    22 Março, Sexta-feira

    Tempo Temperatura Precipitação Vento Pressão Humidade
    00:00 +4°C° 0 mm 1 m/s 662 mmHg 90%
    01:00 +4°C° 0 mm 1 m/s 662 mmHg 91%
    02:00 +3°C° 0 mm 1 m/s 662 mmHg 93%
    03:00 +3°C° 0 mm 1 m/s 662 mmHg 93%
    04:00 +2°C° 0 mm 1 m/s 661 mmHg 94%
    05:00 +2°C° 0 mm 1 m/s 661 mmHg 94%
    06:00 +3°C° 0 mm 1 m/s 662 mmHg 90%
    07:00 +4°C° 0 mm 1 m/s 662 mmHg 85%
    08:00 +5°C° 0 mm 1 m/s 663 mmHg 81%
    09:00 +6°C° 0 mm 1 m/s 663 mmHg 71%
    10:00 +8°C° 0 mm 1 m/s 664 mmHg 62%
    11:00 +9°C° 0 mm 2 m/s 664 mmHg 52%
    12:00 +10°C° 0 mm 2 m/s 664 mmHg 50%
    13:00 +10°C° 0 mm 2 m/s 664 mmHg 49%
    14:00 +12°C° 0 mm 2 m/s 664 mmHg 47%
    15:00 +10°C° 0 mm 2 m/s 663 mmHg 50%
    16:00 +10°C° 0 mm 2 m/s 663 mmHg 54%
    17:00 +9°C° 0 mm 2 m/s 662 mmHg 57%
    18:00 +8°C° 0 mm 1 m/s 662 mmHg 66%
    19:00 +6°C° 0 mm 1 m/s 661 mmHg 74%
    20:00 +4°C° 0 mm 0 m/s 661 mmHg 83%
    21:00 +4°C° 0 mm 1 m/s 661 mmHg 83%
    22:00 +4°C° 0 mm 1 m/s 661 mmHg 84%
    23:00 +4°C° 0 mm 1 m/s 661 mmHg 84%

    23 Março, Sábado

    Tempo Temperatura Precipitação Vento Pressão Humidade
    00:00 +4°C° 0 mm 1 m/s 661 mmHg 84%
    01:00 +3°C° 0 mm 1 m/s 661 mmHg 85%
    02:00 +3°C° 0 mm 1 m/s 661 mmHg 85%
    03:00 +3°C° 0 mm 1 m/s 661 mmHg 85%
    04:00 +3°C° 0 mm 1 m/s 660 mmHg 85%
    05:00 +3°C° 0 mm 1 m/s 660 mmHg 86%
    06:00 +4°C° 0 mm 1 m/s 661 mmHg 81%
    07:00 +5°C° 0 mm 1 m/s 661 mmHg 76%
    08:00 +7°C° 0 mm 1 m/s 662 mmHg 71%
    09:00 +9°C° 0 mm 1 m/s 662 mmHg 63%
    10:00 +11°C° 0 mm 1 m/s 663 mmHg 55%
    11:00 +13°C° 0 mm 1 m/s 663 mmHg 47%
    12:00 +13°C° 0 mm 1 m/s 663 mmHg 46%
    13:00 +14°C° 0 mm 1 m/s 663 mmHg 44%
    14:00 +15°C° 0 mm 2 m/s 663 mmHg 43%
    15:00 +14°C° 0 mm 2 m/s 662 mmHg 46%
    16:00 +13°C° 0 mm 1 m/s 661 mmHg 49%
    17:00 +12°C° 0 mm 1 m/s 661 mmHg 52%
    18:00 +10°C° 0 mm 1 m/s 660 mmHg 61%
    19:00 +8°C° 0 mm 1 m/s 660 mmHg 70%
    20:00 +6°C° 0 mm 0 m/s 660 mmHg 79%
    21:00 +5°C° 0 mm 0 m/s 660 mmHg 79%
    22:00 +5°C° 0 mm 0 m/s 660 mmHg 79%
    23:00 +6°C° 0 mm 1 m/s 660 mmHg 79%

    24 Março, Domingo

    Tempo Temperatura Precipitação Vento Pressão Humidade
    00:00 +6°C° 0 mm 1 m/s 660 mmHg 77%
    01:00 +5°C° 0 mm 1 m/s 660 mmHg 75%
    02:00 +5°C° 0 mm 1 m/s 660 mmHg 73%
    03:00 +5°C° 0 mm 1 m/s 659 mmHg 73%
    04:00 +5°C° 0 mm 1 m/s 659 mmHg 72%
    05:00 +5°C° 0 mm 1 m/s 659 mmHg 71%
    06:00 +6°C° 0 mm 1 m/s 660 mmHg 68%
    07:00 +6°C° 0 mm 0 m/s 660 mmHg 65%
    08:00 +7°C° 0 mm 0 m/s 661 mmHg 62%
    09:00 +9°C° 0 mm 0 m/s 661 mmHg 57%
    10:00 +12°C° 0 mm 1 m/s 662 mmHg 52%
    11:00 +14°C° 0 mm 1 m/s 663 mmHg 47%
    12:00 +15°C° 0 mm 1 m/s 662 mmHg 46%
    13:00 +16°C° 0 mm 1 m/s 662 mmHg 46%
    14:00 +16°C° 0 mm 1 m/s 662 mmHg 45%
    15:00 +15°C° 0 mm 1 m/s 661 mmHg 50%
    16:00 +14°C° 0 mm 1 m/s 660 mmHg 55%
    17:00 +13°C° 0 mm 1 m/s 659 mmHg 60%
    18:00 +12°C° 0 mm 1 m/s 659 mmHg 69%
    19:00 +10°C° 0 mm 1 m/s 658 mmHg 78%
    20:00 +8°C° 0 mm 1 m/s 657 mmHg 87%
    21:00 +8°C° 0 mm 1 m/s 657 mmHg 88%
    22:00 +8°C° 0 mm 1 m/s 657 mmHg 89%
    23:00 +7°C° 0 mm 1 m/s 657 mmHg 90%
    Mostrar mais